NATO302 ETAR-ETAR

Flight info

Callsign NATO302
Flight time 2h 23m
Altitude 2000
Route DCT GE1 STAY01 /0100 DCT KG2 DCT EDLJ STAY02/0010 DCT EDLZ STAY03/0010 DCT EDKM STAY04/0015 DCT JG1 STAY05/0050 DCT GE2 DCT RMS
Aircraft C130/H-SFG/C

Departure

Time 2026-04-29 21:45
Airport Ramstein Air Base (ETAR)

Arrival

Time 2026-04-30 00:09
Airport Ramstein Air Base (ETAR)
Time Latitude Longitude Altitude Speed Heading
2026-04-29 21:16 49.44172 7.61484 791 ft 0 kts 86°
2026-04-29 21:38 49.44171 7.61492 791 ft 6 kts 96°
2026-04-29 21:38 49.44083 7.61551 786 ft 20 kts 177°
2026-04-29 21:38 49.43959 7.61550 782 ft 14 kts 178°
2026-04-29 21:39 49.43887 7.61554 781 ft 6 kts 178°
2026-04-29 21:39 49.43859 7.61555 780 ft 5 kts 181°
2026-04-29 21:39 49.43809 7.61561 780 ft 8 kts 166°
2026-04-29 21:39 49.43751 7.61633 778 ft 11 kts 143°
2026-04-29 21:40 49.43701 7.61670 778 ft 4 kts 165°
2026-04-29 21:40 49.43677 7.61679 778 ft 4 kts 170°
2026-04-29 21:40 49.43653 7.61683 778 ft 0 kts 181°
2026-04-29 21:43 49.43627 7.61679 778 ft 5 kts 195°
2026-04-29 21:43 49.43594 7.61634 779 ft 7 kts 248°
2026-04-29 21:44 49.43576 7.61470 780 ft 40 kts 264°
2026-04-29 21:44 49.43491 7.60723 781 ft 96 kts 270°
2026-04-29 21:44 49.43232 7.59652 770 ft 124 kts 267°
2026-04-29 21:44 49.43173 7.58206 879 ft 145 kts 274°
2026-04-29 21:45 49.43259 7.56517 971 ft 170 kts 283°
2026-04-29 21:45 49.43496 7.54857 1677 ft 150 kts 293°
2026-04-29 21:45 49.43899 7.53368 2002 ft 162 kts 303°
2026-04-29 21:45 49.44553 7.51798 2069 ft 188 kts 312°
2026-04-29 21:46 49.45486 7.50184 2070 ft 213 kts 320°
2026-04-29 21:46 49.46650 7.48610 2058 ft 235 kts 318°
2026-04-29 21:46 49.47419 7.46274 2023 ft 258 kts 282°
2026-04-29 21:46 49.47229 7.43576 2018 ft 257 kts 249°
2026-04-29 21:47 49.46465 7.41101 2061 ft 256 kts 246°
2026-04-29 21:47 49.45780 7.38582 2034 ft 255 kts 256°
2026-04-29 21:47 49.45443 7.35896 2037 ft 254 kts 265°
2026-04-29 21:47 49.45312 7.33210 2028 ft 253 kts 270°
2026-04-29 21:48 49.45290 7.30501 2008 ft 253 kts 272°
2026-04-29 21:48 49.45332 7.27814 2016 ft 252 kts 274°
2026-04-29 21:48 49.45411 7.25084 2021 ft 253 kts 275°
2026-04-29 21:48 49.45511 7.22372 2027 ft 253 kts 275°
2026-04-29 21:49 49.45622 7.19666 2027 ft 252 kts 276°
2026-04-29 21:49 49.45736 7.17002 2025 ft 252 kts 276°
2026-04-29 21:49 49.45857 7.14305 2031 ft 252 kts 276°
2026-04-29 21:49 49.45978 7.11607 2027 ft 252 kts 276°
2026-04-29 21:50 49.46101 7.08882 2039 ft 253 kts 276°
2026-04-29 21:50 49.46222 7.06204 2016 ft 252 kts 276°
2026-04-29 21:50 49.46344 7.03485 1937 ft 253 kts 276°
2026-04-29 21:50 49.46464 7.00808 1755 ft 252 kts 276°
2026-04-29 21:51 49.46584 6.98129 1588 ft 251 kts 276°
2026-04-29 21:51 49.46703 6.95441 1669 ft 251 kts 276°
2026-04-29 21:51 49.46938 6.90081 2033 ft 253 kts 276°
2026-04-29 21:52 49.47055 6.87368 2087 ft 254 kts 276°
2026-04-29 21:52 49.47172 6.84665 2023 ft 252 kts 276°
2026-04-29 21:52 49.47290 6.81955 2024 ft 252 kts 276°
2026-04-29 21:52 49.47406 6.79257 2047 ft 252 kts 276°
2026-04-29 21:53 49.47521 6.76563 2035 ft 252 kts 276°
2026-04-29 21:53 49.48044 6.74054 1994 ft 246 kts 310°
2026-04-29 21:53 49.49395 6.72614 2024 ft 238 kts 347°
2026-04-29 21:53 49.50997 6.72768 2025 ft 233 kts 25°
2026-04-29 21:54 49.52418 6.73999 2046 ft 233 kts 28°
2026-04-29 21:54 49.53833 6.75141 2021 ft 232 kts 28°
2026-04-29 21:54 49.55296 6.76261 2174 ft 232 kts 27°
2026-04-29 21:54 49.56756 6.77336 2330 ft 232 kts 26°
2026-04-29 21:55 49.58218 6.78377 2509 ft 233 kts 25°
2026-04-29 21:55 49.59697 6.79403 2681 ft 233 kts 24°
2026-04-29 21:55 49.61188 6.80417 2867 ft 234 kts 24°
2026-04-29 21:55 49.62684 6.81419 3016 ft 234 kts 24°
2026-04-29 21:56 49.64171 6.82401 3028 ft 235 kts 24°
2026-04-29 21:56 49.65670 6.83385 3032 ft 235 kts 23°
2026-04-29 21:56 49.67190 6.84371 3038 ft 240 kts 23°
2026-04-29 21:56 49.68739 6.85374 3050 ft 241 kts 23°
2026-04-29 21:57 49.70284 6.86375 3038 ft 241 kts 23°
2026-04-29 21:57 49.71840 6.87366 3049 ft 243 kts 24°
2026-04-29 21:57 49.73410 6.88377 3053 ft 243 kts 24°
2026-04-29 21:57 49.74972 6.89390 3058 ft 242 kts 23°
2026-04-29 21:58 49.76532 6.90387 3071 ft 243 kts 23°
2026-04-29 21:58 49.78075 6.91371 3067 ft 243 kts 23°
2026-04-29 21:58 49.79641 6.92376 3071 ft 242 kts 23°
2026-04-29 21:58 49.81216 6.93368 3074 ft 246 kts 24°
2026-04-29 21:59 49.82782 6.94390 3079 ft 241 kts 22°
2026-04-29 21:59 49.84339 6.95378 3034 ft 244 kts 24°
2026-04-29 21:59 49.85893 6.96370 2855 ft 243 kts 24°
2026-04-29 21:59 49.87453 6.97374 2673 ft 240 kts 24°
2026-04-29 22:00 49.88992 6.98376 2491 ft 241 kts 27°
2026-04-29 22:00 49.90394 6.99786 2310 ft 239 kts 34°
2026-04-29 22:00 49.91769 7.01193 2138 ft 238 kts 34°
2026-04-29 22:00 49.93156 7.02617 2079 ft 239 kts 35°
2026-04-29 22:01 49.94545 7.04045 2080 ft 241 kts 35°
2026-04-29 22:01 49.95955 7.05501 2077 ft 240 kts 35°
2026-04-29 22:01 49.97333 7.06925 2079 ft 239 kts 34°
2026-04-29 22:01 49.98718 7.08352 2077 ft 242 kts 34°
2026-04-29 22:02 50.00130 7.09810 2079 ft 242 kts 35°
2026-04-29 22:02 50.01528 7.11244 2090 ft 243 kts 35°
2026-04-29 22:02 50.02959 7.12722 2078 ft 245 kts 35°
2026-04-29 22:02 50.04368 7.14178 2081 ft 244 kts 35°
2026-04-29 22:03 50.05789 7.15650 2077 ft 244 kts 35°
2026-04-29 22:03 50.07211 7.17122 2079 ft 244 kts 34°
2026-04-29 22:03 50.08650 7.18609 1940 ft 251 kts 35°
2026-04-29 22:03 50.10066 7.20077 1755 ft 248 kts 34°
2026-04-29 22:04 50.11456 7.21528 1594 ft 240 kts 34°
2026-04-29 22:04 50.12875 7.22990 1588 ft 243 kts 34°
2026-04-29 22:04 50.14267 7.24431 1566 ft 245 kts 34°
2026-04-29 22:04 50.15662 7.25882 1576 ft 243 kts 34°
2026-04-29 22:05 50.17056 7.27339 1585 ft 243 kts 35°
2026-04-29 22:05 50.18477 7.28810 1562 ft 240 kts 34°
2026-04-29 22:05 50.20567 7.32613 1581 ft 239 kts 77°
2026-04-29 22:06 50.20994 7.35145 1620 ft 241 kts 76°
2026-04-29 22:06 50.21419 7.37674 1577 ft 241 kts 76°
2026-04-29 22:06 50.21845 7.40221 1586 ft 241 kts 76°
2026-04-29 22:06 50.22281 7.42795 1610 ft 241 kts 76°
2026-04-29 22:07 50.22709 7.45332 1792 ft 244 kts 76°
2026-04-29 22:07 50.23141 7.47928 1964 ft 243 kts 75°
2026-04-29 22:07 50.23574 7.50482 2136 ft 243 kts 75°
2026-04-29 22:07 50.24015 7.53080 2314 ft 244 kts 75°
2026-04-29 22:08 50.24450 7.55653 2488 ft 247 kts 76°
2026-04-29 22:08 50.24874 7.58239 2665 ft 244 kts 75°
2026-04-29 22:08 50.25319 7.60826 2841 ft 242 kts 75°
2026-04-29 22:08 50.25750 7.63424 3016 ft 244 kts 75°
2026-04-29 22:09 50.26192 7.66015 3081 ft 249 kts 77°
2026-04-29 22:09 50.26616 7.68603 3085 ft 242 kts 76°
2026-04-29 22:09 50.27045 7.71167 3086 ft 240 kts 76°
2026-04-29 22:09 50.27478 7.73724 2951 ft 239 kts 77°
2026-04-29 22:10 50.27899 7.76228 2775 ft 240 kts 77°
2026-04-29 22:10 50.28324 7.78786 2598 ft 239 kts 77°
2026-04-29 22:10 50.28727 7.81255 2423 ft 233 kts 77°
2026-04-29 22:10 50.29136 7.83719 2248 ft 232 kts 77°
2026-04-29 22:11 50.29541 7.86171 2108 ft 229 kts 77°
2026-04-29 22:11 50.29937 7.88584 2100 ft 228 kts 77°
2026-04-29 22:11 50.30331 7.90973 2104 ft 227 kts 77°
2026-04-29 22:11 50.30734 7.93403 2108 ft 227 kts 77°
2026-04-29 22:12 50.31127 7.95797 2106 ft 227 kts 77°
2026-04-29 22:12 50.31525 7.98219 2105 ft 228 kts 77°
2026-04-29 22:12 50.31920 8.00630 2102 ft 228 kts 77°
2026-04-29 22:12 50.32310 8.03045 2112 ft 228 kts 73°
2026-04-29 22:13 50.32707 8.05468 2101 ft 224 kts 75°
2026-04-29 22:13 50.33097 8.07852 2116 ft 223 kts 75°
2026-04-29 22:13 50.33482 8.10210 2290 ft 225 kts 74°
2026-04-29 22:13 50.33875 8.12623 2468 ft 226 kts 74°
2026-04-29 22:14 50.34269 8.15045 2646 ft 227 kts 73°
2026-04-29 22:14 50.34658 8.17441 2821 ft 229 kts 73°
2026-04-29 22:14 50.35056 8.19893 2998 ft 231 kts 73°
2026-04-29 22:14 50.35455 8.22357 3105 ft 233 kts 73°
2026-04-29 22:15 50.35856 8.24826 3105 ft 234 kts 72°
2026-04-29 22:15 50.36258 8.27314 3117 ft 234 kts 72°
2026-04-29 22:15 50.36662 8.29815 3123 ft 236 kts 72°
2026-04-29 22:15 50.37071 8.32345 3125 ft 237 kts 72°
2026-04-29 22:16 50.37477 8.34871 3127 ft 239 kts 72°
2026-04-29 22:16 50.37887 8.37413 3130 ft 240 kts 72°
2026-04-29 22:16 50.38300 8.39983 3132 ft 242 kts 72°
2026-04-29 22:16 50.38709 8.42536 3133 ft 242 kts 72°
2026-04-29 22:17 50.39121 8.45114 3133 ft 242 kts 72°
2026-04-29 22:17 50.39533 8.47691 3133 ft 242 kts 72°
2026-04-29 22:17 50.39943 8.50265 3133 ft 242 kts 72°
2026-04-29 22:17 50.40353 8.52838 3133 ft 241 kts 72°
2026-04-29 22:18 50.40760 8.55399 3133 ft 241 kts 72°
2026-04-29 22:18 50.41169 8.57976 3133 ft 241 kts 72°
2026-04-29 22:18 50.41575 8.60539 3133 ft 241 kts 72°
2026-04-29 22:18 50.41982 8.63114 3133 ft 241 kts 72°
2026-04-29 22:19 50.42416 8.65667 3119 ft 240 kts 65°
2026-04-29 22:19 50.43460 8.67630 2997 ft 234 kts 34°
2026-04-29 22:19 50.44741 8.69190 2841 ft 233 kts 36°
2026-04-29 22:19 50.46032 8.70775 2664 ft 232 kts 37°
2026-04-29 22:20 50.47306 8.72348 2488 ft 232 kts 37°
2026-04-29 22:20 50.48564 8.73906 2308 ft 231 kts 37°
2026-04-29 22:20 50.49825 8.75469 2130 ft 230 kts 37°
2026-04-29 22:20 50.51090 8.77039 1953 ft 230 kts 37°
2026-04-29 22:21 50.52353 8.78609 1777 ft 229 kts 37°
2026-04-29 22:21 50.53611 8.80175 1689 ft 228 kts 38°
2026-04-29 22:21 50.54870 8.81747 1874 ft 234 kts 37°
2026-04-29 22:21 50.56152 8.83347 2052 ft 236 kts 37°
2026-04-29 22:22 50.57452 8.84973 2132 ft 236 kts 37°
2026-04-29 22:22 50.58733 8.86576 2131 ft 235 kts 37°
2026-04-29 22:22 50.60029 8.88198 2132 ft 235 kts 37°
2026-04-29 22:22 50.61319 8.89813 2130 ft 235 kts 37°
2026-04-29 22:23 50.62603 8.91423 2136 ft 236 kts 37°
2026-04-29 22:23 50.63896 8.93044 2074 ft 236 kts 38°
2026-04-29 22:23 50.65186 8.94661 1888 ft 235 kts 38°
2026-04-29 22:23 50.66476 8.96278 1712 ft 235 kts 38°
2026-04-29 22:24 50.67741 8.97868 1715 ft 234 kts 38°
2026-04-29 22:24 50.69024 8.99482 1756 ft 236 kts 38°
2026-04-29 22:24 50.70329 9.01124 1751 ft 236 kts 38°
2026-04-29 22:24 50.71616 9.02745 1772 ft 237 kts 39°
2026-04-29 22:25 50.72904 9.04369 1762 ft 237 kts 39°
2026-04-29 22:25 50.74211 9.06018 1776 ft 238 kts 39°
2026-04-29 22:25 50.75502 9.07648 1778 ft 238 kts 39°
2026-04-29 22:25 50.76810 9.09301 1780 ft 239 kts 39°
2026-04-29 22:26 50.78108 9.10942 1813 ft 239 kts 39°
2026-04-29 22:26 50.79411 9.12593 1991 ft 239 kts 39°
2026-04-29 22:26 50.80263 9.13673 2104 ft 240 kts 39°
2026-04-29 22:27 50.80912 9.14495 2170 ft 240 kts 39°
2026-04-29 22:27 50.82219 9.16152 2188 ft 240 kts 39°
2026-04-29 22:28 50.83664 9.17521 2161 ft 241 kts 15°
2026-04-29 22:28 50.85328 9.17267 2186 ft 245 kts 337°
2026-04-29 22:28 50.86566 9.15446 2186 ft 250 kts 300°
2026-04-29 22:28 50.87194 9.12852 2203 ft 251 kts 293°
2026-04-29 22:29 50.87535 9.11499 2190 ft 251 kts 293°
2026-04-29 22:29 50.87790 9.10499 2186 ft 251 kts 294°
2026-04-29 22:29 50.88479 9.07911 2188 ft 251 kts 295°
2026-04-29 22:30 50.89184 9.05366 2190 ft 251 kts 295°
2026-04-29 22:30 50.89905 9.02841 2187 ft 251 kts 296°
2026-04-29 22:30 50.90648 9.00294 2182 ft 251 kts 296°
2026-04-29 22:30 50.91398 8.97765 2186 ft 251 kts 297°
2026-04-29 22:31 50.92149 8.95259 2193 ft 251 kts 297°
2026-04-29 22:31 50.92923 8.92724 2360 ft 257 kts 296°
2026-04-29 22:31 50.93708 8.90141 2540 ft 258 kts 296°
2026-04-29 22:31 50.94496 8.87563 2716 ft 259 kts 296°
2026-04-29 22:32 50.95288 8.84977 2870 ft 261 kts 296°
2026-04-29 22:32 50.96095 8.82347 2879 ft 262 kts 296°
2026-04-29 22:32 50.96898 8.79735 2877 ft 262 kts 296°
2026-04-29 22:32 50.97701 8.77121 2875 ft 262 kts 296°
2026-04-29 22:33 50.98506 8.74504 2873 ft 263 kts 296°
2026-04-29 22:33 50.99316 8.71870 2873 ft 263 kts 296°
2026-04-29 22:33 51.00123 8.69246 2873 ft 263 kts 296°
2026-04-29 22:33 51.00932 8.66615 2874 ft 262 kts 296°
2026-04-29 22:34 51.01733 8.64006 2876 ft 262 kts 296°
2026-04-29 22:34 51.02539 8.61379 2875 ft 263 kts 296°
2026-04-29 22:34 51.03344 8.58751 2871 ft 264 kts 296°
2026-04-29 22:34 51.04152 8.56111 2867 ft 265 kts 296°
2026-04-29 22:35 51.04969 8.53441 2863 ft 266 kts 296°
2026-04-29 22:35 51.05792 8.50748 2849 ft 267 kts 296°
2026-04-29 22:35 51.06709 8.48146 2832 ft 267 kts 312°
2026-04-29 22:35 51.08257 8.46634 2833 ft 261 kts 349°
2026-04-29 22:36 51.10028 8.46841 2918 ft 251 kts 27°
2026-04-29 22:36 51.11337 8.48623 3152 ft 245 kts 55°
2026-04-29 22:36 51.12460 8.50658 3343 ft 245 kts 51°
2026-04-29 22:36 51.13638 8.52656 3511 ft 247 kts 50°
2026-04-29 22:37 51.14861 8.54660 3577 ft 248 kts 49°
2026-04-29 22:37 51.16083 8.56609 3578 ft 248 kts 47°
2026-04-29 22:37 51.17329 8.58545 3582 ft 248 kts 47°
2026-04-29 22:37 51.18588 8.60469 3584 ft 249 kts 46°
2026-04-29 22:38 51.19857 8.62378 3586 ft 249 kts 46°
2026-04-29 22:38 51.21147 8.64297 3586 ft 249 kts 45°
2026-04-29 22:38 51.22430 8.66181 3586 ft 249 kts 44°
2026-04-29 22:38 51.23709 8.68059 3587 ft 249 kts 45°
2026-04-29 22:39 51.24992 8.69946 3587 ft 249 kts 45°
2026-04-29 22:39 51.26283 8.71835 3587 ft 249 kts 45°
2026-04-29 22:39 51.27588 8.73742 3593 ft 249 kts 45°
2026-04-29 22:39 51.28862 8.75601 3595 ft 249 kts 45°
2026-04-29 22:40 51.30169 8.77506 3587 ft 249 kts 45°
2026-04-29 22:40 51.31456 8.79381 3587 ft 249 kts 45°
2026-04-29 22:40 51.32748 8.81263 3587 ft 249 kts 45°
2026-04-29 22:40 51.34049 8.83158 3587 ft 249 kts 45°
2026-04-29 22:41 51.35336 8.85033 3587 ft 249 kts 45°
2026-04-29 22:41 51.36624 8.86910 3587 ft 249 kts 45°
2026-04-29 22:41 51.37907 8.88782 3587 ft 249 kts 45°
2026-04-29 22:41 51.39211 8.90684 3587 ft 248 kts 45°
2026-04-29 22:42 51.40496 8.92560 3587 ft 248 kts 45°
2026-04-29 22:42 51.41771 8.94424 3587 ft 248 kts 45°
2026-04-29 22:42 51.43064 8.96314 3587 ft 247 kts 45°
2026-04-29 22:42 51.44332 8.98169 3587 ft 247 kts 45°
2026-04-29 22:43 51.45609 9.00039 3587 ft 246 kts 45°
2026-04-29 22:43 51.46898 9.01927 3587 ft 246 kts 45°
2026-04-29 22:43 51.48161 9.03779 3587 ft 246 kts 45°
2026-04-29 22:43 51.49431 9.05644 3587 ft 245 kts 45°
2026-04-29 22:44 51.50870 9.07179 3581 ft 248 kts 26°
2026-04-29 22:44 51.52416 9.08406 3597 ft 248 kts 28°
2026-04-29 22:44 51.53971 9.09645 3587 ft 247 kts 28°
2026-04-29 22:44 51.55523 9.10882 3587 ft 247 kts 28°
2026-04-29 22:45 51.57073 9.12120 3587 ft 247 kts 28°
2026-04-29 22:45 51.58621 9.13358 3587 ft 247 kts 28°
2026-04-29 22:45 51.60171 9.14597 3587 ft 246 kts 28°
2026-04-29 22:45 51.61709 9.15827 3587 ft 247 kts 28°
2026-04-29 22:46 51.63251 9.17062 3587 ft 247 kts 28°
2026-04-29 22:46 51.64813 9.18313 3587 ft 247 kts 28°
2026-04-29 22:46 51.66361 9.19554 3497 ft 247 kts 28°
2026-04-29 22:46 51.67889 9.20781 3319 ft 245 kts 28°
2026-04-29 22:47 51.69439 9.22026 3140 ft 244 kts 28°
2026-04-29 22:47 51.70952 9.23242 2965 ft 244 kts 28°
2026-04-29 22:47 51.72493 9.24482 2787 ft 243 kts 28°
2026-04-29 22:47 51.74011 9.25703 2692 ft 246 kts 28°
2026-04-29 22:48 51.75571 9.26960 2696 ft 248 kts 28°
2026-04-29 22:48 51.77133 9.28219 2692 ft 248 kts 28°
2026-04-29 22:48 51.78680 9.29467 2692 ft 248 kts 28°
2026-04-29 22:48 51.80247 9.30732 2692 ft 248 kts 28°
2026-04-29 22:49 51.81751 9.31946 2676 ft 231 kts 28°
2026-04-29 22:49 51.83148 9.33074 2673 ft 218 kts 28°
2026-04-29 22:49 51.84481 9.34152 2673 ft 210 kts 28°
2026-04-29 22:49 51.85789 9.35210 2676 ft 202 kts 28°
2026-04-29 22:50 51.87051 9.36232 2687 ft 202 kts 28°
2026-04-29 22:50 51.88331 9.37271 2694 ft 203 kts 28°
2026-04-29 22:50 51.89611 9.38310 2696 ft 204 kts 28°
2026-04-29 22:50 51.90881 9.39341 2699 ft 204 kts 28°
2026-04-29 22:51 51.92165 9.40385 2702 ft 204 kts 28°
2026-04-29 22:51 51.93507 9.41240 2688 ft 207 kts
2026-04-29 22:51 51.95589 9.38656 2694 ft 189 kts 275°
2026-04-29 22:52 51.95441 9.36697 2734 ft 161 kts 257°
2026-04-29 22:52 51.95270 9.34932 2702 ft 156 kts 258°
2026-04-29 22:52 51.95121 9.33151 2708 ft 157 kts 259°
2026-04-29 22:52 51.94996 9.31391 2709 ft 157 kts 261°
2026-04-29 22:53 51.94888 9.29607 2708 ft 157 kts 261°
2026-04-29 22:53 51.94796 9.27810 2709 ft 157 kts 262°
2026-04-29 22:53 51.94716 9.26022 2709 ft 157 kts 263°
2026-04-29 22:53 51.94649 9.24253 2783 ft 156 kts 263°
2026-04-29 22:54 51.94590 9.22473 2972 ft 157 kts 263°
2026-04-29 22:54 51.94539 9.20672 3149 ft 157 kts 264°
2026-04-29 22:54 51.94493 9.18882 3206 ft 157 kts 264°
2026-04-29 22:54 51.94453 9.17086 3212 ft 157 kts 264°
2026-04-29 22:55 51.94417 9.15297 3213 ft 157 kts 264°
2026-04-29 22:55 51.94385 9.13534 3214 ft 156 kts 264°
2026-04-29 22:55 51.94355 9.11741 3215 ft 156 kts 264°
2026-04-29 22:55 51.94329 9.09971 3215 ft 156 kts 265°
2026-04-29 22:56 51.94304 9.08178 3214 ft 157 kts 265°
2026-04-29 22:56 51.94280 9.06394 3213 ft 157 kts 265°
2026-04-29 22:56 51.94259 9.04624 3213 ft 157 kts 265°
2026-04-29 22:56 51.94238 9.02833 3212 ft 157 kts 265°
2026-04-29 22:57 51.94218 9.01051 3211 ft 158 kts 265°
2026-04-29 22:57 51.94199 8.99253 3211 ft 158 kts 265°
2026-04-29 22:57 51.94180 8.97478 3210 ft 158 kts 265°
2026-04-29 22:57 51.94162 8.95678 3209 ft 158 kts 265°
2026-04-29 22:58 51.94144 8.93868 3208 ft 159 kts 265°
2026-04-29 22:58 51.94126 8.92067 3208 ft 159 kts 265°
2026-04-29 22:58 51.93993 8.90266 3073 ft 172 kts 248°
2026-04-29 22:58 51.93269 8.88303 2189 ft 236 kts 223°
2026-04-29 22:59 51.92195 8.86610 3391 ft 185 kts 220°
2026-04-29 22:59 51.91489 8.85406 4443 ft 150 kts 223°
2026-04-29 22:59 51.90681 8.83774 3725 ft 221 kts 232°
2026-04-29 22:59 51.90257 8.82608 3810 ft 225 kts 241°
2026-04-29 23:00 51.89959 8.81096 4653 ft 197 kts 258°
2026-04-29 23:00 51.89978 8.79802 5228 ft 185 kts 277°
2026-04-29 23:00 51.90293 8.77460 4129 ft 262 kts 269°
2026-04-29 23:01 51.89576 8.74531 2872 ft 296 kts 225°
2026-04-29 23:01 51.87893 8.72755 3171 ft 285 kts 204°
2026-04-29 23:01 51.86160 8.71030 3195 ft 292 kts 211°
2026-04-29 23:01 51.84483 8.69008 3192 ft 298 kts 216°
2026-04-29 23:02 51.82875 8.66791 3157 ft 303 kts 220°
2026-04-29 23:02 51.81332 8.64456 3213 ft 305 kts 222°
2026-04-29 23:02 51.79813 8.62000 3189 ft 298 kts 224°
2026-04-29 23:02 51.78428 8.59651 3168 ft 271 kts 224°
2026-04-29 23:03 51.77190 8.57487 3150 ft 247 kts 225°
2026-04-29 23:03 51.76078 8.55504 3150 ft 224 kts 225°
2026-04-29 23:03 51.75085 8.53707 3150 ft 203 kts 225°
2026-04-29 23:03 51.74181 8.52056 3155 ft 182 kts 225°
2026-04-29 23:04 51.73387 8.50596 3155 ft 161 kts 224°
2026-04-29 23:04 51.72658 8.49252 3214 ft 156 kts 224°
2026-04-29 23:04 51.71933 8.47913 3185 ft 157 kts 224°
2026-04-29 23:04 51.71212 8.46578 3192 ft 157 kts 225°
2026-04-29 23:05 51.70482 8.45220 3188 ft 157 kts 225°
2026-04-29 23:05 51.69764 8.43882 3189 ft 157 kts 225°
2026-04-29 23:05 51.69043 8.42536 3188 ft 157 kts 225°
2026-04-29 23:05 51.68320 8.41186 3023 ft 158 kts 225°
2026-04-29 23:06 51.67600 8.39840 2848 ft 157 kts 225°
2026-04-29 23:06 51.66872 8.38479 2674 ft 157 kts 225°
2026-04-29 23:06 51.66148 8.37123 2494 ft 157 kts 225°
2026-04-29 23:06 51.65425 8.35768 2320 ft 157 kts 226°
2026-04-29 23:07 51.64706 8.34422 2191 ft 157 kts 225°
2026-04-29 23:07 51.63995 8.33086 2332 ft 156 kts 225°
2026-04-29 23:07 51.63266 8.31716 2352 ft 158 kts 225°
2026-04-29 23:07 51.62546 8.30367 2284 ft 157 kts 225°
2026-04-29 23:08 51.61829 8.29020 2287 ft 157 kts 225°
2026-04-29 23:08 51.61100 8.27653 2288 ft 157 kts 225°
2026-04-29 23:08 51.60369 8.26281 2286 ft 157 kts 225°
2026-04-29 23:08 51.59654 8.24940 2287 ft 157 kts 225°
2026-04-29 23:09 51.58933 8.23588 2287 ft 157 kts 225°
2026-04-29 23:09 51.58194 8.22222 2285 ft 157 kts 220°
2026-04-29 23:09 51.57237 8.21558 2289 ft 148 kts 174°
2026-04-29 23:09 51.56200 8.21657 2295 ft 147 kts 173°
2026-04-29 23:10 51.55159 8.21736 2288 ft 147 kts 173°
2026-04-29 23:10 51.54112 8.21816 2278 ft 148 kts 173°
2026-04-29 23:10 51.53039 8.21902 2306 ft 157 kts 173°
2026-04-29 23:10 51.51928 8.21988 2279 ft 157 kts 174°
2026-04-29 23:11 51.50833 8.22075 2289 ft 157 kts 173°
2026-04-29 23:11 51.49735 8.22162 2287 ft 156 kts 173°
2026-04-29 23:11 51.48634 8.22249 2286 ft 156 kts 173°
2026-04-29 23:11 51.47530 8.22337 2288 ft 156 kts 173°
2026-04-29 23:12 51.46422 8.22426 2287 ft 156 kts 173°
2026-04-29 23:12 51.45327 8.22513 2285 ft 156 kts 173°
2026-04-29 23:12 51.44224 8.22602 2284 ft 156 kts 173°
2026-04-29 23:12 51.43122 8.22691 2286 ft 156 kts 173°
2026-04-29 23:13 51.42016 8.22781 2296 ft 157 kts 173°
2026-04-29 23:13 51.40906 8.22871 2286 ft 157 kts 173°
2026-04-29 23:13 51.39800 8.22960 2280 ft 157 kts 173°
2026-04-29 23:13 51.38686 8.23051 2282 ft 157 kts 173°
2026-04-29 23:14 51.37571 8.23141 2283 ft 157 kts 173°
2026-04-29 23:14 51.36450 8.23234 2329 ft 170 kts 173°
2026-04-29 23:14 51.35135 8.23345 2320 ft 201 kts 174°
2026-04-29 23:14 51.33619 8.23470 2307 ft 226 kts 174°
2026-04-29 23:15 51.31959 8.23604 2428 ft 240 kts 174°
2026-04-29 23:15 51.30250 8.23847 2637 ft 245 kts 162°
2026-04-29 23:15 51.28770 8.25112 2825 ft 240 kts 148°
2026-04-29 23:15 51.27303 8.26485 3006 ft 238 kts 147°
2026-04-29 23:16 51.25865 8.27839 3159 ft 238 kts 148°
2026-04-29 23:16 51.24411 8.29208 3170 ft 238 kts 148°
2026-04-29 23:16 51.22964 8.30568 3174 ft 238 kts 148°
2026-04-29 23:16 51.21506 8.31939 3093 ft 238 kts 148°
2026-04-29 23:17 51.20063 8.33292 2906 ft 238 kts 147°
2026-04-29 23:17 51.18601 8.34663 2729 ft 238 kts 147°
2026-04-29 23:17 51.17169 8.36004 2711 ft 236 kts 147°
2026-04-29 23:17 51.15739 8.37346 2886 ft 237 kts 147°
2026-04-29 23:18 51.14295 8.38699 3061 ft 237 kts 147°
2026-04-29 23:18 51.12838 8.40062 3148 ft 238 kts 147°
2026-04-29 23:18 51.11398 8.41406 3153 ft 237 kts 147°
2026-04-29 23:18 51.09966 8.42741 3165 ft 237 kts 147°
2026-04-29 23:19 51.08518 8.44091 3150 ft 237 kts 147°
2026-04-29 23:19 51.07292 8.45807 3118 ft 235 kts 120°
2026-04-29 23:19 51.06576 8.48200 3172 ft 235 kts 116°
2026-04-29 23:19 51.05852 8.50571 3158 ft 236 kts 116°
2026-04-29 23:20 51.05129 8.52938 3159 ft 236 kts 116°
2026-04-29 23:20 51.04396 8.55330 3164 ft 236 kts 116°
2026-04-29 23:20 51.03669 8.57706 3168 ft 237 kts 116°
2026-04-29 23:20 51.02935 8.60097 3171 ft 237 kts 116°
2026-04-29 23:21 51.02198 8.62498 3174 ft 237 kts 116°
2026-04-29 23:21 51.01463 8.64890 3177 ft 237 kts 116°
2026-04-29 23:21 51.00733 8.67260 3178 ft 237 kts 117°
2026-04-29 23:21 50.99990 8.69672 3177 ft 237 kts 116°
2026-04-29 23:22 50.99253 8.72061 3176 ft 238 kts 116°
2026-04-29 23:22 50.98510 8.74470 3176 ft 238 kts 116°
2026-04-29 23:22 50.97774 8.76848 3176 ft 238 kts 116°
2026-04-29 23:22 50.97031 8.79254 3177 ft 238 kts 116°
2026-04-29 23:23 50.96290 8.81646 3179 ft 239 kts 116°
2026-04-29 23:23 50.95543 8.84057 3181 ft 239 kts 116°
2026-04-29 23:23 50.94794 8.86470 3183 ft 240 kts 116°
2026-04-29 23:23 50.94040 8.88903 3186 ft 241 kts 116°
2026-04-29 23:24 50.93280 8.91308 3183 ft 250 kts 115°
2026-04-29 23:24 50.92498 8.93831 3191 ft 250 kts 114°
2026-04-29 23:24 50.91713 8.96364 3187 ft 249 kts 114°
2026-04-29 23:24 50.90947 8.98828 3151 ft 250 kts 114°
2026-04-29 23:25 50.90174 9.01309 2974 ft 248 kts 114°
2026-04-29 23:25 50.89401 9.03791 2795 ft 247 kts 114°
2026-04-29 23:25 50.88626 9.06273 2687 ft 246 kts 114°
2026-04-29 23:25 50.87856 9.08734 2687 ft 247 kts 114°
2026-04-29 23:26 50.87089 9.11185 2687 ft 247 kts 114°
2026-04-29 23:26 50.86305 9.13686 2686 ft 247 kts 114°
2026-04-29 23:26 50.85494 9.16125 2675 ft 248 kts 123°
2026-04-29 23:26 50.84086 9.17725 2669 ft 253 kts 161°
2026-04-29 23:27 50.82314 9.17660 2683 ft 256 kts 198°
2026-04-29 23:27 50.80885 9.16009 2696 ft 257 kts 227°
2026-04-29 23:27 50.79597 9.13985 2694 ft 257 kts 224°
2026-04-29 23:27 50.78276 9.12022 2687 ft 257 kts 222°
2026-04-29 23:28 50.76916 9.10084 2685 ft 257 kts 221°
2026-04-29 23:28 50.75547 9.08193 2682 ft 258 kts 221°
2026-04-29 23:28 50.74171 9.06337 2604 ft 258 kts 220°
2026-04-29 23:28 50.72791 9.04507 2424 ft 257 kts 220°
2026-04-29 23:29 50.71402 9.02689 2246 ft 257 kts 220°
2026-04-29 23:29 50.70001 9.00876 2162 ft 257 kts 220°
2026-04-29 23:29 50.68612 8.99091 2156 ft 257 kts 220°
2026-04-29 23:29 50.67205 8.97296 2151 ft 258 kts 220°
2026-04-29 23:30 50.65776 8.95480 2150 ft 258 kts 220°
2026-04-29 23:30 50.64370 8.93699 2141 ft 258 kts 220°
2026-04-29 23:30 50.62949 8.91904 2139 ft 258 kts 220°
2026-04-29 23:30 50.61526 8.90111 2136 ft 258 kts 220°
2026-04-29 23:31 50.60109 8.88328 2130 ft 258 kts 220°
2026-04-29 23:31 50.58685 8.86540 2133 ft 258 kts 220°
2026-04-29 23:31 50.57251 8.84742 2133 ft 258 kts 220°
2026-04-29 23:31 50.55840 8.82976 2133 ft 258 kts 220°
2026-04-29 23:32 50.54422 8.81204 2133 ft 258 kts 220°
2026-04-29 23:32 50.53000 8.79427 2133 ft 258 kts 220°
2026-04-29 23:32 50.51565 8.77636 2133 ft 258 kts 220°
2026-04-29 23:32 50.50147 8.75870 2133 ft 258 kts 220°
2026-04-29 23:33 50.48715 8.74087 2133 ft 258 kts 220°
2026-04-29 23:33 50.47289 8.72312 2133 ft 258 kts 220°
2026-04-29 23:33 50.45860 8.70536 2133 ft 258 kts 220°
2026-04-29 23:33 50.44434 8.68765 2132 ft 258 kts 220°
2026-04-29 23:34 50.43028 8.66985 2127 ft 257 kts 225°
2026-04-29 23:34 50.42162 8.64515 2118 ft 251 kts 260°
2026-04-29 23:34 50.41752 8.61827 2144 ft 252 kts 259°
2026-04-29 23:34 50.41322 8.59085 2115 ft 253 kts 258°
2026-04-29 23:35 50.40884 8.56357 2143 ft 254 kts 258°
2026-04-29 23:35 50.40440 8.53595 2128 ft 256 kts 258°
2026-04-29 23:35 50.40005 8.50879 2176 ft 256 kts 258°
2026-04-29 23:35 50.39565 8.48133 2356 ft 257 kts 258°
2026-04-29 23:36 50.39119 8.45358 2524 ft 258 kts 258°
2026-04-29 23:36 50.38668 8.42549 2626 ft 261 kts 257°
2026-04-29 23:36 50.38222 8.39756 2626 ft 263 kts 258°
2026-04-29 23:36 50.37769 8.36912 2627 ft 263 kts 258°
2026-04-29 23:37 50.37326 8.34118 2630 ft 264 kts 257°
2026-04-29 23:37 50.36869 8.31253 2627 ft 264 kts 257°
2026-04-29 23:37 50.36422 8.28476 2629 ft 265 kts 257°
2026-04-29 23:37 50.35965 8.25629 2628 ft 266 kts 256°
2026-04-29 23:38 50.35507 8.22760 2628 ft 265 kts 254°
2026-04-29 23:38 50.35055 8.19925 2629 ft 265 kts 253°
2026-04-29 23:38 50.34595 8.17100 2630 ft 265 kts 253°
2026-04-29 23:38 50.34129 8.14226 2630 ft 265 kts 253°
2026-04-29 23:39 50.33665 8.11374 2630 ft 265 kts 253°
2026-04-29 23:39 50.33202 8.08530 2630 ft 265 kts 253°
2026-04-29 23:39 50.32737 8.05690 2630 ft 265 kts 253°
2026-04-29 23:39 50.32274 8.02852 2630 ft 265 kts 253°
2026-04-29 23:40 50.31801 7.99993 2625 ft 266 kts 256°
2026-04-29 23:40 50.31323 7.97142 2699 ft 265 kts 257°
2026-04-29 23:40 50.30858 7.94302 2882 ft 265 kts 257°
2026-04-29 23:40 50.30394 7.91478 3060 ft 266 kts 257°
2026-04-29 23:41 50.29930 7.88645 3128 ft 266 kts 257°
2026-04-29 23:41 50.29461 7.85773 3123 ft 266 kts 254°
2026-04-29 23:41 50.29009 7.82960 3119 ft 263 kts 253°
2026-04-29 23:41 50.28553 7.80204 3115 ft 260 kts 252°
2026-04-29 23:42 50.28077 7.77397 3111 ft 263 kts 254°
2026-04-29 23:42 50.27604 7.74583 3106 ft 264 kts 254°
2026-04-29 23:42 50.27146 7.71817 3102 ft 258 kts 253°
2026-04-29 23:42 50.26676 7.69064 3088 ft 265 kts 255°
2026-04-29 23:43 50.26206 7.66225 3091 ft 263 kts 255°
2026-04-29 23:43 50.25741 7.63442 3084 ft 262 kts 255°
2026-04-29 23:43 50.25272 7.60636 3084 ft 259 kts 253°
2026-04-29 23:43 50.24824 7.57927 3079 ft 249 kts 253°
2026-04-29 23:44 50.24371 7.55236 3079 ft 252 kts 253°
2026-04-29 23:44 50.23902 7.52466 3088 ft 255 kts 254°
2026-04-29 23:44 50.23450 7.49787 3076 ft 259 kts 253°
2026-04-29 23:44 50.22994 7.47073 3073 ft 257 kts 253°
2026-04-29 23:45 50.22538 7.44372 3073 ft 256 kts 253°
2026-04-29 23:45 50.22053 7.41588 3083 ft 263 kts 255°
2026-04-29 23:45 50.21589 7.38788 3082 ft 261 kts 253°
2026-04-29 23:45 50.21124 7.36033 3083 ft 258 kts 253°
2026-04-29 23:46 50.20657 7.33306 3087 ft 259 kts 253°
2026-04-29 23:46 50.20009 7.30692 3063 ft 256 kts 231°
2026-04-29 23:46 50.18631 7.28970 3103 ft 250 kts 210°
2026-04-29 23:46 50.17144 7.27417 3093 ft 251 kts 211°
2026-04-29 23:47 50.15640 7.25857 3033 ft 254 kts 211°
2026-04-29 23:47 50.14141 7.24303 2851 ft 257 kts 211°
2026-04-29 23:47 50.12642 7.22747 2669 ft 257 kts 211°
2026-04-29 23:47 50.11168 7.21217 2503 ft 252 kts 211°
2026-04-29 23:48 50.09698 7.19697 2477 ft 252 kts 211°
2026-04-29 23:48 50.08220 7.18165 2485 ft 249 kts 211°
2026-04-29 23:48 50.06752 7.16645 2481 ft 250 kts 211°
2026-04-29 23:48 50.05307 7.15151 2478 ft 253 kts 211°
2026-04-29 23:49 50.03832 7.13628 2481 ft 254 kts 211°
2026-04-29 23:49 50.02354 7.12099 2483 ft 251 kts 211°
2026-04-29 23:49 50.00874 7.10572 2485 ft 248 kts 211°
2026-04-29 23:49 49.99384 7.09042 2488 ft 255 kts 211°
2026-04-29 23:50 49.97896 7.07503 2481 ft 253 kts 211°
2026-04-29 23:50 49.96421 7.05986 2482 ft 253 kts 211°
2026-04-29 23:50 49.93395 7.02883 2480 ft 260 kts 212°
2026-04-29 23:51 49.91865 7.01311 2476 ft 263 kts 212°
2026-04-29 23:51 49.90180 7.00159 2449 ft 258 kts 184°
2026-04-29 23:51 49.88445 7.00703 2469 ft 252 kts 147°
2026-04-29 23:51 49.87266 7.02678 2487 ft 244 kts 118°
2026-04-29 23:52 49.86340 7.04933 2475 ft 246 kts 119°
2026-04-29 23:52 49.85410 7.07194 2489 ft 246 kts 120°
2026-04-29 23:52 49.84473 7.09471 2500 ft 245 kts 119°
2026-04-29 23:52 49.83524 7.11769 2635 ft 247 kts 120°
2026-04-29 23:53 49.82580 7.14058 2824 ft 250 kts 120°
2026-04-29 23:53 49.81637 7.16348 3001 ft 251 kts 120°
2026-04-29 23:53 49.80667 7.18682 3174 ft 254 kts 119°
2026-04-29 23:53 49.79696 7.21051 3351 ft 260 kts 120°
2026-04-29 23:54 49.78708 7.23424 3530 ft 258 kts 120°
2026-04-29 23:54 49.77713 7.25835 3702 ft 264 kts 120°
2026-04-29 23:54 49.76710 7.28262 3886 ft 266 kts 121°
2026-04-29 23:54 49.75699 7.30694 4058 ft 269 kts 120°
2026-04-29 23:55 49.74693 7.33114 4087 ft 270 kts 121°
2026-04-29 23:55 49.73654 7.35605 4088 ft 268 kts 120°
2026-04-29 23:55 49.72632 7.38060 4093 ft 270 kts 121°
2026-04-29 23:55 49.71607 7.40522 4095 ft 273 kts 120°
2026-04-29 23:56 49.70593 7.42959 4094 ft 267 kts 120°
2026-04-29 23:56 49.69556 7.45439 4094 ft 270 kts 120°
2026-04-29 23:56 49.68541 7.47875 4085 ft 268 kts 120°
2026-04-29 23:56 49.67516 7.50326 4085 ft 266 kts 120°
2026-04-29 23:57 49.66495 7.52760 4083 ft 266 kts 120°
2026-04-29 23:57 49.65485 7.55176 4081 ft 263 kts 120°
2026-04-29 23:57 49.64525 7.57455 4052 ft 241 kts 119°
2026-04-29 23:57 49.63643 7.59552 4043 ft 219 kts 118°
2026-04-29 23:58 49.62848 7.61445 4036 ft 199 kts 118°
2026-04-29 23:58 49.62140 7.63128 4058 ft 174 kts 117°
2026-04-29 23:58 49.61485 7.64692 4071 ft 173 kts 117°
2026-04-29 23:58 49.60841 7.66227 4066 ft 173 kts 118°
2026-04-29 23:59 49.60186 7.67785 4065 ft 173 kts 118°
2026-04-29 23:59 49.59525 7.69358 4063 ft 172 kts 118°
2026-04-29 23:59 49.58865 7.70927 4063 ft 173 kts 118°
2026-04-29 23:59 49.58207 7.72491 4063 ft 173 kts 118°
2026-04-30 00:00 49.57541 7.74070 4063 ft 173 kts 118°
2026-04-30 00:00 49.56888 7.75618 4063 ft 173 kts 118°
2026-04-30 00:00 49.56210 7.77225 4075 ft 179 kts 118°
2026-04-30 00:00 49.55509 7.78887 4064 ft 183 kts 118°
2026-04-30 00:01 49.54818 7.80520 4064 ft 183 kts 118°
2026-04-30 00:01 49.54113 7.82187 4063 ft 183 kts 118°
2026-04-30 00:01 49.53415 7.83838 4063 ft 183 kts 118°
2026-04-30 00:01 49.52717 7.85485 4063 ft 183 kts 118°
2026-04-30 00:02 49.52007 7.87160 4062 ft 183 kts 118°
2026-04-30 00:02 49.51304 7.88819 4064 ft 183 kts 118°
2026-04-30 00:02 49.50609 7.90455 4064 ft 183 kts 118°
2026-04-30 00:02 49.49905 7.92112 4064 ft 183 kts 118°
2026-04-30 00:03 49.49163 7.93751 4053 ft 186 kts 130°
2026-04-30 00:03 49.47978 7.94577 4059 ft 184 kts 176°
2026-04-30 00:03 49.46842 7.94050 4098 ft 170 kts 215°
2026-04-30 00:03 49.45892 7.92930 4043 ft 169 kts 238°
2026-04-30 00:04 49.45590 7.91262 4076 ft 159 kts 277°
2026-04-30 00:04 49.45578 7.89525 4065 ft 160 kts 274°
2026-04-30 00:04 49.45533 7.87789 4030 ft 162 kts 273°
2026-04-30 00:04 49.45466 7.86034 3839 ft 161 kts 271°
2026-04-30 00:05 49.45382 7.84296 3656 ft 162 kts 271°
2026-04-30 00:05 49.45284 7.82573 3436 ft 162 kts 270°
2026-04-30 00:05 49.45189 7.80814 3339 ft 166 kts 272°
2026-04-30 00:05 49.45025 7.79017 3593 ft 170 kts 264°
2026-04-30 00:06 49.44804 7.77342 3773 ft 153 kts 261°
2026-04-30 00:06 49.44547 7.75734 3690 ft 151 kts 261°
2026-04-30 00:06 49.44302 7.74191 3665 ft 147 kts 265°
2026-04-30 00:06 49.44136 7.72560 3334 ft 161 kts 271°
2026-04-30 00:07 49.44099 7.70993 3489 ft 130 kts 271°
2026-04-30 00:07 49.44029 7.69633 3244 ft 126 kts 280°
2026-04-30 00:07 49.44017 7.68276 2962 ft 125 kts 272°
2026-04-30 00:07 49.43924 7.66930 2748 ft 126 kts 268°
2026-04-30 00:08 49.43761 7.65634 2648 ft 121 kts 266°
2026-04-30 00:08 49.43760 7.64273 1906 ft 143 kts 270°
2026-04-30 00:08 49.43727 7.62715 1217 ft 148 kts 258°
2026-04-30 00:08 49.43565 7.61222 818 ft 132 kts 264°
2026-04-30 00:09 49.43465 7.60124 773 ft 45 kts 262°
2026-04-30 00:09 49.43459 7.60047 772 ft 0 kts 264°
2026-04-30 00:10 49.43459 7.60045 772 ft 0 kts 264°
2026-04-30 00:10 49.43459 7.60055 772 ft 1 kts 264°
2026-04-30 00:11 49.43462 7.60090 773 ft 4 kts 264°
2026-04-30 00:11 49.43465 7.60141 774 ft 0 kts 264°
2026-04-30 00:11 49.43464 7.60128 774 ft 1 kts 264°
2026-04-30 00:11 49.43463 7.60107 773 ft 2 kts 264°
2026-04-30 00:12 49.43459 7.60086 773 ft 1 kts 226°
2026-04-30 00:12 49.43394 7.60140 774 ft 24 kts 135°
2026-04-30 00:12 49.43260 7.60273 778 ft 18 kts 150°
2026-04-30 00:12 49.43209 7.60335 780 ft 6 kts 94°
2026-04-30 00:13 49.43226 7.60426 782 ft 6 kts 72°
2026-04-30 00:13 49.43229 7.60450 782 ft 0 kts 93°
2026-04-30 00:13 49.43189 7.60497 784 ft 13 kts 161°
2026-04-30 00:13 49.43143 7.60545 786 ft 0 kts 95°
2026-04-30 00:14 49.43143 7.60546 786 ft 0 kts 95°
2026-04-30 00:15 49.43153 7.60559 786 ft 1 kts
2026-04-30 00:15 49.43170 7.60528 785 ft 6 kts 290°
2026-04-30 00:15 49.43173 7.60501 784 ft 0 kts 273°
2026-04-30 00:15 49.43169 7.60488 784 ft 2 kts 248°
2026-04-30 00:16 49.43172 7.60473 784 ft 0 kts 306°